This is the latest recevied weather packets stored in our database for station/object AA0RD-13. If no packets are shown the sender has not sent any weather packets the latest 10 day(s).
| Time | Temp. | Humidity | Pressure | Rain* | Wind** | Luminosity | Snow |
|---|---|---|---|---|---|---|---|
| 1777959509 | 10.56° C | 97% | 1010.5 hPa | 0 mm | - | - | - |
| 1777959221 | 10.56° C | 97% | 1010.4 hPa | 0 mm | - | - | - |
| 1777958316 | 10.56° C | 96% | 1010.2 hPa | 0 mm | - | - | - |
| 1777957406 | 11.11° C | 96% | 1009.9 hPa | 0 mm | - | - | - |
| 1777957102 | 11.11° C | 95% | 1010 hPa | 0 mm | - | - | - |
| 1777956505 | 11.11° C | 96% | 1010 hPa | 0 mm | - | - | - |
| 1777954411 | 11.11° C | 95% | 1009.5 hPa | 0 mm | - | - | - |
| 1777953199 | 11.11° C | 94% | 1009.6 hPa | 0 mm | - | - | - |
| 1777952910 | 11.11° C | 94% | 1009.5 hPa | 0 mm | - | - | - |
| 1777951102 | 11.67° C | 91% | 1009.2 hPa | 0 mm | - | - | - |
| 1777950217 | 12.22° C | 91% | 1009.1 hPa | 0 mm | - | - | - |
| 1777948732 | 12.22° C | 89% | 1009 hPa | 0 mm | - | - | - |
| 1777948423 | 12.22° C | 89% | 1009.1 hPa | 0 mm | - | - | - |
| 1777947521 | 12.78° C | 89% | 1009.2 hPa | 0 mm | - | - | - |
| 1777946903 | 12.78° C | 88% | 1009.4 hPa | 0 mm | - | - | - |
| 1777945998 | 12.78° C | 88% | 1009.5 hPa | 0 mm | - | - | - |
| 1777945096 | 12.78° C | 87% | 1009.5 hPa | 0 mm | - | - | - |
| 1777944500 | 13.33° C | 86% | 1009.7 hPa | 0 mm | - | - | - |
| 1777944231 | 13.33° C | 86% | 1009.9 hPa | 0 mm | - | - | - |
| 1777942404 | 13.89° C | 85% | 1009.9 hPa | 0 mm | - | - | - |
| 1777941807 | 13.89° C | 86% | 1009.9 hPa | 0 mm | - | - | - |
| 1777940610 | 13.89° C | 86% | 1009.7 hPa | 0 mm | - | - | - |
| 1777939723 | 13.33° C | 87% | 1009.7 hPa | 0 mm | - | - | - |
| 1777938823 | 13.33° C | 87% | 1009.8 hPa | 0 mm | - | - | - |
| 1777938513 | 13.33° C | 87% | 1009.9 hPa | 0 mm | - | - | - |
* Rain latest hour (hover to see other rain measurements)
** Current wind speed in m/s (hover to see current wind gust speed)